map of PMI home
PMI - Airport
Location
City:  Palma de Mallorca, Mallorca, Balearic Islands, Spain
Name:Son Sant Joan Airport
ICAO:LEPA
IATA:PMI

Details
Type:Airport (Aerodrome, Airfield)
Use:Public/Civil, Military
Latitude:3933'06"N (39.551675)
Longitude:244'20"E (2.738808)
Datum:WGS 1984
Elevation:27 ft (8 m)
Variation:1.04E (WMM2015 magnetic declination)
0.11 annual change
Runways:2
Longest:10728 × 148 ft (3270 × 45 m), paved

Weather
METAR:LEPA 260400Z 04004KT 9000 FEW010 BKN015 19/18 Q1012 NOSIG
TAF:LEPA 252300Z 2600/2624 06005KT 9999 FEW030 TX28/2612Z TN14/2606Z PROB30
TEMPO 2600/2607 4000 BR BKN012
BECMG 2609/2611 22011KT
BECMG 2618/2621 06006KT

Related Locations
Nearby:
Farthest:GIS: 12179 mi / 19600 km
Gisborne, GIS, NZ

Find:

   beyond  
but within

Other Information
Maps:
NOTAMs:
Links:
Sources:

  
flag of Spain
flag of Balearic Islands
flag of Mallorca
  

Airport Diagram

Airport diagram for PMI

Larger airport diagram (OBSOLETE) from NGA

Sectional Chart

Flight Planning
at skyvector.com

Satellite Image

Google Maps Satellite view

 

Copyright © 2004-2018 Karl L. Swartz. All rights reserved.
The Great Circle Mapper name and logo are trademarks of the Great Circle Mapper.
All other trademarks mentioned herein belong to their respective owners.
Please see credits for attibutions and further copyright information.

  Follow gcmap on Facebook Follow gcmap on Twitter Follow gcmap on Google+ GCmap on LinkedIn

hCard Microformat

Geo Microformat